Regional Weather Roundup
Issued by NWS

Home | Current Version | Previous Version | Graphics & Text | Print | Product List | Glossary On
Versions: 1 2 3 4 5 6 7 8 9 10 11 12 13 14 15 16 17 18 19 20 21 22 23 24 25 26 27 28 29 30 31 32 33 34 35 36 37 38 39 40 41 42 43 44 45 46 47 48 49 50
000
ASUS45 KCYS 020110
RWRWY

WYOMING REGIONAL WEATHER ROUNDUP
NATIONAL WEATHER SERVICE CHEYENNE WY
700 PM MDT MON SEP 01 2014

NOTE:  "FAIR" INDICATES FEW OR NO CLOUDS BELOW 12,000 FEET
WITH NO SIGNIFICANT WEATHER AND/OR OBSTRUCTIONS TO VISIBILITY.

WYZ001-020200-
YELLOWSTONE NATIONAL PARK

CITY           SKY/WX    TMP DP  RH WIND       PRES   REMARKS
LK YELLOWSTONE   N/A     53  34  48 VRB3      30.21S
W YELLOWSTONE  NOT AVBL

$$
WYZ002>013-054>058-071-098>099-020200-
NORTHERN WYOMING

CITY           SKY/WX    TMP DP  RH WIND       PRES   REMARKS
JACKSON        NOT AVBL
CODY             N/A    N/A N/A N/A MISG        N/A
GREYBULL       CLEAR     70  40  33 SE5       29.95S
WORLAND        CLEAR     70  42  36 NE5       29.96S
SHERIDAN       CLEAR     63  46  54 SW3       29.98R
BUFFALO        CLEAR     60  41  49 SW5       30.04S
GILLETTE       CLEAR     61  42  49 W6        30.01R
HULETT         FAIR      61  39  44 MISG      30.01
NEWCASTLE      FAIR      61  37  41 NW9       30.02

$$
WYZ014>020-022>026-101>103-020200-
CENTRAL WYOMING

CITY           SKY/WX    TMP DP  RH WIND       PRES   REMARKS
BIG PINEY      CLEAR     64  32  30 NW14      30.17S
PINEDALE       CLEAR     61  30  31 W15       30.18S
DUBOIS         FAIR      59  25  27 NW16      30.14R
LANDER         CLEAR     71  26  18 W9        30.02R
RIVERTON       CLEAR     71  26  18 NW17      30.02R
CASPER         CLEAR     65  38  36 NE5       30.04R
DOUGLAS        PTCLDY    60  45  57 NE6       30.06R

$$
WYZ021-027>030-104>119-020200-
SOUTHERN WYOMING

CITY           SKY/WX    TMP DP  RH WIND       PRES   REMARKS
EVANSTON       PTCLDY    65  31  28 SW15      30.21S
KEMMERER       CLEAR     61  32  33 W14G20    30.22R
FORT BRIDGER   FAIR      68  32  26 W13G18    30.22S
ROCK SPRINGS   CLEAR     66  26  22 W17       30.16R
DIXON          FAIR      69  37  31 W8        30.16R
RAWLINS        CLEAR     66  24  20 W16G22    30.13R
SARATOGA       FAIR      63  30  29 W15G24    30.16R
LARAMIE        PTCLDY    64  30  27 NW17      30.14R
CHEYENNE       PTCLDY    69  32  25 NW12      30.07R
TORRINGTON     PTCLDY    65  46  50 N18G26    30.00R
PINE BLUFFS    FAIR      66  43  42 N14       30.02R

$$



USA.gov is the U.S. government's official web portal to all federal, state and local government web resources and services.